Location: Unspecified
(0.0000°N, 0.0000°E)
Time: 00:59:46
(UTC+00:00)

Vanguard 2 - Pass Details

Date: 09 December 2017
Orbit: 553 x 2939 km, 32.9° (Epoch: 22 June)

Event Time Altitude Azimuth Distance (km) Brightness Sun altitude
Exits shadow 00:34:07 14° 115° (ESE) 4,097 11.3 -65.0°
Drops below altitude 10° 00:35:45 10° 116° (ESE) 4,597 11.6 -64.8°
Sets 00:40:19 0° 119° (ESE) 5,963 12.4 -64.4°
